Time,TemperatureF,DewpointF,PressureIn,WindDirection,WindDirectionDegrees,WindSpeedMPH,WindSpeedGustMPH,Humidity,HourlyPrecipIn,Conditions,Clouds,dailyrainin,SolarRadiationWatts/m^2,SoftwareType,DateUTC
2013-08-02 00:04:00,56.7,53.2,29.77,North,5,4.0,4.0,88,0.00,,,0.00,0,Wunderground v.1.15,2013-08-02 06:04:00,
2013-08-02 00:09:00,56.7,53.2,29.77,North,5,0.0,4.0,88,0.00,,,0.00,0,Wunderground v.1.15,2013-08-02 06:09:00,
2013-08-02 00:15:00,56.6,53.1,29.77,North,5,0.0,2.0,88,0.00,,,0.00,0,Wunderground v.1.15,2013-08-02 06:15:00,
2013-08-02 00:21:00,56.5,53.0,29.77,North,5,0.0,0.0,88,0.00,,,0.00,0,Wunderground v.1.15,2013-08-02 06:21:00,
2013-08-02 00:27:00,56.5,53.0,29.77,North,5,0.0,0.0,88,0.00,,,0.00,0,Wunderground v.1.15,2013-08-02 06:27:00,
2013-08-02 00:33:00,56.2,53.0,29.77,North,5,0.0,0.0,89,0.00,,,0.00,0,Wunderground v.1.15,2013-08-02 06:33:00,
2013-08-02 00:38:00,56.0,52.8,29.77,North,5,0.0,0.0,89,0.00,,,0.00,0,Wunderground v.1.15,2013-08-02 06:38:00,
2013-08-02 00:43:00,56.0,52.8,29.77,North,5,0.0,0.0,89,0.00,,,0.00,0,Wunderground v.1.15,2013-08-02 06:43:00,
2013-08-02 00:49:00,55.9,52.7,29.77,North,5,0.0,0.0,89,0.00,,,0.00,0,Wunderground v.1.15,2013-08-02 06:49:00,
2013-08-02 00:54:00,55.9,52.7,29.77,North,5,0.0,0.0,89,0.00,,,0.00,0,Wunderground v.1.15,2013-08-02 06:54:00,
2013-08-02 00:59:00,55.9,52.7,29.77,North,5,0.0,0.0,89,0.00,,,0.00,0,Wunderground v.1.15,2013-08-02 06:59:00,
2013-08-02 01:04:00,55.9,52.7,29.77,North,5,0.0,0.0,89,0.00,,,0.00,0,Wunderground v.1.15,2013-08-02 07:04:00,
2013-08-02 01:10:00,55.7,52.5,29.77,North,5,0.0,0.0,89,0.00,,,0.00,0,Wunderground v.1.15,2013-08-02 07:10:00,
2013-08-02 01:15:00,55.7,52.5,29.76,North,5,0.0,0.0,89,0.00,,,0.00,0,Wunderground v.1.15,2013-08-02 07:15:00,
2013-08-02 01:21:00,55.7,52.8,29.76,North,355,0.0,4.0,90,0.00,,,0.00,0,Wunderground v.1.15,2013-08-02 07:21:00,
2013-08-02 01:26:00,55.7,52.8,29.76,WNW,294,6.0,6.0,90,0.00,,,0.00,0,Wunderground v.1.15,2013-08-02 07:26:00,
2013-08-02 01:31:00,55.7,52.8,29.75,West,281,3.0,7.0,90,0.00,,,0.00,0,Wunderground v.1.15,2013-08-02 07:31:00,
2013-08-02 01:37:00,55.7,52.8,29.75,West,272,4.0,7.0,90,0.00,,,0.00,0,Wunderground v.1.15,2013-08-02 07:37:00,
2013-08-02 01:43:00,55.7,52.8,29.75,West,272,3.0,4.0,90,0.00,,,0.00,0,Wunderground v.1.15,2013-08-02 07:43:00,
2013-08-02 01:48:00,55.6,52.7,29.75,West,272,3.0,5.0,90,0.00,,,0.00,0,Wunderground v.1.15,2013-08-02 07:48:00,
2013-08-02 01:53:00,55.6,52.7,29.75,West,272,2.0,4.0,90,0.00,,,0.00,0,Wunderground v.1.15,2013-08-02 07:53:00,
2013-08-02 01:59:00,55.4,52.5,29.75,West,272,3.0,4.0,90,0.00,,,0.00,0,Wunderground v.1.15,2013-08-02 07:59:00,
2013-08-02 02:04:00,55.3,52.4,29.75,West,272,0.0,3.0,90,0.00,,,0.00,0,Wunderground v.1.15,2013-08-02 08:04:00,
2013-08-02 02:09:00,55.3,52.4,29.75,West,272,0.0,3.0,90,0.00,,,0.00,0,Wunderground v.1.15,2013-08-02 08:09:00,
2013-08-02 02:14:00,55.1,52.2,29.75,West,272,0.0,1.0,90,0.00,,,0.00,0,Wunderground v.1.15,2013-08-02 08:14:00,
2013-08-02 02:19:00,55.1,52.2,29.75,West,272,0.0,1.0,90,0.00,,,0.00,0,Wunderground v.1.15,2013-08-02 08:19:00,
2013-08-02 02:24:00,55.0,52.1,29.75,West,272,0.0,0.0,90,0.00,,,0.00,0,Wunderground v.1.15,2013-08-02 08:24:00,
2013-08-02 02:29:00,55.0,52.1,29.74,West,272,0.0,0.0,90,0.00,,,0.00,0,Wunderground v.1.15,2013-08-02 08:29:00,
2013-08-02 02:34:00,54.8,51.9,29.74,West,272,0.0,0.0,90,0.00,,,0.00,0,Wunderground v.1.15,2013-08-02 08:34:00,
2013-08-02 02:39:00,54.7,51.8,29.74,West,272,0.0,0.0,90,0.00,,,0.00,0,Wunderground v.1.15,2013-08-02 08:39:00,
2013-08-02 02:44:00,54.5,51.3,29.75,West,272,0.0,0.0,89,0.00,,,0.00,0,Wunderground v.1.15,2013-08-02 08:44:00,
2013-08-02 02:49:00,54.2,51.0,29.75,West,272,0.0,0.0,89,0.00,,,0.00,0,Wunderground v.1.15,2013-08-02 08:49:00,
2013-08-02 02:54:00,54.1,50.9,29.75,West,272,0.0,0.0,89,0.00,,,0.00,0,Wunderground v.1.15,2013-08-02 08:54:00,
2013-08-02 02:59:00,53.8,50.6,29.75,West,272,0.0,0.0,89,0.00,,,0.00,0,Wunderground v.1.15,2013-08-02 08:59:00,
2013-08-02 03:04:00,53.6,50.4,29.75,West,272,0.0,0.0,89,0.00,,,0.00,0,Wunderground v.1.15,2013-08-02 09:04:00,
2013-08-02 03:09:00,53.6,50.4,29.75,West,272,0.0,0.0,89,0.00,,,0.00,0,Wunderground v.1.15,2013-08-02 09:09:00,
2013-08-02 03:14:00,53.5,50.3,29.75,West,272,0.0,0.0,89,0.00,,,0.00,0,Wunderground v.1.15,2013-08-02 09:14:00,
2013-08-02 03:19:00,53.3,50.1,29.75,West,272,0.0,0.0,89,0.00,,,0.00,0,Wunderground v.1.15,2013-08-02 09:19:00,
2013-08-02 03:24:00,53.3,50.1,29.75,West,272,0.0,0.0,89,0.00,,,0.00,0,Wunderground v.1.15,2013-08-02 09:24:00,
2013-08-02 03:29:00,53.2,50.0,29.75,West,272,0.0,0.0,89,0.00,,,0.00,0,Wunderground v.1.15,2013-08-02 09:29:00,
2013-08-02 03:34:00,53.1,49.9,29.75,West,272,0.0,0.0,89,0.00,,,0.00,0,Wunderground v.1.15,2013-08-02 09:34:00,
2013-08-02 03:39:00,52.9,49.7,29.75,West,272,0.0,0.0,89,0.00,,,0.00,0,Wunderground v.1.15,2013-08-02 09:39:00,
2013-08-02 03:44:00,52.8,49.9,29.78,West,272,0.0,0.0,90,0.00,,,0.00,0,Wunderground v.1.15,2013-08-02 09:44:00,
2013-08-02 03:49:00,52.9,50.3,29.78,WNW,284,0.0,6.0,91,0.00,,,0.00,0,Wunderground v.1.15,2013-08-02 09:49:00,
2013-08-02 03:54:00,53.2,50.6,29.78,WNW,284,3.0,3.0,91,0.00,,,0.00,0,Wunderground v.1.15,2013-08-02 09:54:00,
2013-08-02 04:00:00,53.5,50.9,29.77,WNW,284,0.0,2.0,91,0.00,,,0.00,0,Wunderground v.1.15,2013-08-02 10:00:00,
2013-08-02 04:05:00,53.5,51.2,29.77,WNW,284,0.0,2.0,92,0.00,,,0.00,0,Wunderground v.1.15,2013-08-02 10:05:00,
2013-08-02 04:10:00,53.5,51.2,29.77,WNW,284,0.0,0.0,92,0.00,,,0.00,0,Wunderground v.1.15,2013-08-02 10:10:00,
2013-08-02 04:15:00,53.5,51.2,29.76,WNW,284,0.0,0.0,92,0.00,,,0.00,0,Wunderground v.1.15,2013-08-02 10:15:00,
2013-08-02 04:20:00,53.3,51.0,29.76,WNW,284,0.0,0.0,92,0.00,,,0.00,0,Wunderground v.1.15,2013-08-02 10:20:00,
2013-08-02 04:25:00,53.2,50.6,29.76,WNW,284,0.0,0.0,91,0.00,,,0.00,0,Wunderground v.1.15,2013-08-02 10:25:00,
2013-08-02 04:30:00,52.8,50.2,29.75,WNW,284,3.0,3.0,91,0.00,,,0.00,0,Wunderground v.1.15,2013-08-02 10:30:00,
2013-08-02 04:35:00,52.5,49.9,29.75,WNW,284,3.0,5.0,91,0.00,,,0.00,0,Wunderground v.1.15,2013-08-02 10:35:00,
2013-08-02 04:40:00,52.3,49.8,29.75,WNW,284,0.0,2.0,91,0.00,,,0.00,0,Wunderground v.1.15,2013-08-02 10:40:00,
2013-08-02 04:45:00,52.3,50.0,29.75,WNW,284,0.0,2.0,92,0.00,,,0.00,0,Wunderground v.1.15,2013-08-02 10:45:00,
2013-08-02 04:50:00,52.2,49.9,29.75,WNW,284,0.0,0.0,92,0.00,,,0.00,0,Wunderground v.1.15,2013-08-02 10:50:00,
2013-08-02 04:55:00,52.0,49.7,29.75,WNW,284,0.0,0.0,92,0.00,,,0.00,0,Wunderground v.1.15,2013-08-02 10:55:00,
2013-08-02 05:00:00,51.9,49.4,29.75,WNW,284,0.0,0.0,91,0.00,,,0.00,0,Wunderground v.1.15,2013-08-02 11:00:00,
2013-08-02 05:05:00,51.6,49.1,29.75,WNW,284,0.0,0.0,91,0.00,,,0.00,0,Wunderground v.1.15,2013-08-02 11:05:00,
2013-08-02 05:10:00,51.4,48.9,29.75,WNW,284,0.0,0.0,91,0.00,,,0.00,0,Wunderground v.1.15,2013-08-02 11:10:00,
2013-08-02 05:16:00,51.3,48.8,29.74,WNW,284,0.0,0.0,91,0.00,,,0.00,0,Wunderground v.1.15,2013-08-02 11:16:00,
2013-08-02 05:21:00,51.1,48.6,29.74,WNW,284,0.0,0.0,91,0.00,,,0.00,0,Wunderground v.1.15,2013-08-02 11:21:00,
2013-08-02 05:26:00,51.0,48.5,29.74,West,275,0.0,8.0,91,0.00,,,0.00,0,Wunderground v.1.15,2013-08-02 11:26:00,
2013-08-02 05:31:00,51.0,48.5,29.74,West,275,0.0,1.0,91,0.00,,,0.00,0,Wunderground v.1.15,2013-08-02 11:31:00,
2013-08-02 05:37:00,50.8,48.3,29.74,West,275,0.0,1.0,91,0.00,,,0.00,0,Wunderground v.1.15,2013-08-02 11:37:00,
2013-08-02 05:42:00,50.7,48.2,29.74,West,275,0.0,0.0,91,0.00,,,0.00,0,Wunderground v.1.15,2013-08-02 11:42:00,
2013-08-02 05:47:00,50.5,48.0,29.75,West,275,0.0,0.0,91,0.00,,,0.01,0,Wunderground v.1.15,2013-08-02 11:47:00,
2013-08-02 05:52:00,50.2,47.7,29.75,West,275,0.0,0.0,91,0.00,,,0.01,0,Wunderground v.1.15,2013-08-02 11:52:00,
2013-08-02 05:57:00,50.2,48.0,29.75,West,275,0.0,0.0,92,0.00,,,0.01,0,Wunderground v.1.15,2013-08-02 11:57:00,
2013-08-02 06:03:00,50.1,47.9,29.75,West,275,0.0,0.0,92,0.00,,,0.01,0,Wunderground v.1.15,2013-08-02 12:03:00,
2013-08-02 06:08:00,49.9,47.4,29.75,West,275,0.0,0.0,91,0.00,,,0.01,0,Wunderground v.1.15,2013-08-02 12:08:00,
2013-08-02 06:13:00,49.8,47.6,29.75,West,275,0.0,0.0,92,0.00,,,0.01,5,Wunderground v.1.15,2013-08-02 12:13:00,
2013-08-02 06:18:00,49.6,47.1,29.76,West,275,0.0,0.0,91,0.00,,,0.01,7,Wunderground v.1.15,2013-08-02 12:18:00,
2013-08-02 06:23:00,49.6,47.1,29.76,West,275,0.0,0.0,91,0.00,,,0.01,12,Wunderground v.1.15,2013-08-02 12:23:00,
2013-08-02 06:28:00,49.5,47.0,29.76,West,275,0.0,0.0,91,0.00,,,0.01,21,Wunderground v.1.15,2013-08-02 12:28:00,
2013-08-02 06:33:00,49.5,47.3,29.76,West,275,0.0,0.0,92,0.00,,,0.01,28,Wunderground v.1.15,2013-08-02 12:33:00,
2013-08-02 06:38:00,49.5,47.3,29.76,West,275,0.0,0.0,92,0.00,,,0.01,32,Wunderground v.1.15,2013-08-02 12:38:00,
2013-08-02 06:43:00,49.5,47.3,29.76,West,275,0.0,0.0,92,0.00,,,0.01,60,Wunderground v.1.15,2013-08-02 12:43:00,
2013-08-02 06:48:00,49.5,47.3,29.77,West,275,0.0,0.0,92,0.00,,,0.01,86,Wunderground v.1.15,2013-08-02 12:48:00,
2013-08-02 06:53:00,49.6,47.4,29.77,West,275,0.0,0.0,92,0.00,,,0.01,97,Wunderground v.1.15,2013-08-02 12:53:00,
2013-08-02 06:58:00,49.9,47.7,29.77,West,275,0.0,0.0,92,0.00,,,0.01,123,Wunderground v.1.15,2013-08-02 12:58:00,
2013-08-02 07:04:00,50.4,48.5,29.77,West,275,0.0,0.0,93,0.00,,,0.01,135,Wunderground v.1.15,2013-08-02 13:04:00,
2013-08-02 07:08:00,51.1,49.1,29.77,West,275,0.0,0.0,93,0.00,,,0.01,130,Wunderground v.1.15,2013-08-02 13:08:00,
2013-08-02 07:14:00,51.7,49.7,29.77,West,275,0.0,0.0,93,0.00,,,0.01,141,Wunderground v.1.15,2013-08-02 13:14:00,
2013-08-02 07:19:00,52.5,50.8,29.77,West,275,0.0,0.0,94,0.00,,,0.01,151,Wunderground v.1.15,2013-08-02 13:19:00,
2013-08-02 07:24:00,53.2,51.5,29.77,West,275,0.0,0.0,94,0.00,,,0.01,160,Wunderground v.1.15,2013-08-02 13:24:00,
2013-08-02 07:29:00,53.8,52.1,29.78,West,275,0.0,0.0,94,0.00,,,0.01,172,Wunderground v.1.15,2013-08-02 13:29:00,
2013-08-02 07:34:00,54.4,52.7,29.78,West,275,0.0,0.0,94,0.00,,,0.01,185,Wunderground v.1.15,2013-08-02 13:34:00,
2013-08-02 07:39:00,54.8,53.1,29.78,West,275,0.0,0.0,94,0.00,,,0.01,200,Wunderground v.1.15,2013-08-02 13:39:00,
2013-08-02 07:44:00,55.3,53.6,29.79,West,275,0.0,0.0,94,0.00,,,0.01,216,Wunderground v.1.15,2013-08-02 13:44:00,
2013-08-02 07:49:00,55.7,53.7,29.79,West,275,0.0,0.0,93,0.00,,,0.01,229,Wunderground v.1.15,2013-08-02 13:49:00,
2013-08-02 07:54:00,56.0,54.0,29.79,West,275,0.0,0.0,93,0.00,,,0.01,244,Wunderground v.1.15,2013-08-02 13:54:00,
2013-08-02 07:59:00,56.5,54.5,29.78,West,275,0.0,0.0,93,0.00,,,0.01,260,Wunderground v.1.15,2013-08-02 13:59:00,
2013-08-02 08:04:00,57.0,55.0,29.78,West,275,0.0,0.0,93,0.00,,,0.01,276,Wunderground v.1.15,2013-08-02 14:04:00,
2013-08-02 08:09:00,57.3,55.0,29.78,West,275,0.0,0.0,92,0.00,,,0.01,292,Wunderground v.1.15,2013-08-02 14:09:00,
2013-08-02 08:14:00,57.8,55.5,29.79,West,275,0.0,0.0,92,0.00,,,0.01,311,Wunderground v.1.15,2013-08-02 14:14:00,
2013-08-02 08:19:00,58.3,55.7,29.79,West,275,0.0,0.0,91,0.00,,,0.01,341,Wunderground v.1.15,2013-08-02 14:19:00,
2013-08-02 08:24:00,58.7,55.8,29.79,West,275,0.0,0.0,90,0.00,,,0.01,383,Wunderground v.1.15,2013-08-02 14:24:00,
2013-08-02 08:29:00,59.2,56.0,29.79,West,275,0.0,0.0,89,0.00,,,0.01,369,Wunderground v.1.15,2013-08-02 14:29:00,
2013-08-02 08:34:00,59.6,56.0,29.79,West,275,0.0,0.0,88,0.00,,,0.01,278,Wunderground v.1.15,2013-08-02 14:34:00,
2013-08-02 08:39:00,60.1,55.9,29.79,West,275,0.0,0.0,86,0.00,,,0.01,420,Wunderground v.1.15,2013-08-02 14:39:00,
2013-08-02 08:44:00,60.5,56.0,29.78,West,275,0.0,0.0,85,0.00,,,0.01,418,Wunderground v.1.15,2013-08-02 14:44:00,
2013-08-02 08:49:00,61.0,55.5,29.78,West,275,0.0,0.0,82,0.00,,,0.01,432,Wunderground v.1.15,2013-08-02 14:49:00,
2013-08-02 08:54:00,61.6,55.7,29.78,West,275,0.0,0.0,81,0.00,,,0.01,446,Wunderground v.1.15,2013-08-02 14:54:00,
2013-08-02 08:59:00,62.1,55.5,29.78,West,275,0.0,1.0,79,0.00,,,0.01,461,Wunderground v.1.15,2013-08-02 14:59:00,
2013-08-02 09:04:00,62.6,55.6,29.78,West,275,0.0,0.0,78,0.00,,,0.01,478,Wunderground v.1.15,2013-08-02 15:04:00,
2013-08-02 09:09:00,63.2,54.0,29.78,West,275,0.0,0.0,72,0.00,,,0.01,443,Wunderground v.1.15,2013-08-02 15:09:00,
2013-08-02 09:14:00,63.7,53.7,29.78,West,275,0.0,0.0,70,0.00,,,0.01,506,Wunderground v.1.15,2013-08-02 15:14:00,
2013-08-02 09:20:00,64.3,53.5,29.78,West,275,0.0,0.0,68,0.00,,,0.01,531,Wunderground v.1.15,2013-08-02 15:20:00,
2013-08-02 09:24:00,65.0,53.4,29.78,West,275,0.0,0.0,66,0.00,,,0.01,540,Wunderground v.1.15,2013-08-02 15:24:00,
2013-08-02 09:30:00,65.6,53.5,29.78,West,275,0.0,0.0,65,0.00,,,0.01,561,Wunderground v.1.15,2013-08-02 15:30:00,
2013-08-02 09:35:00,66.0,53.5,29.78,West,275,0.0,0.0,64,0.00,,,0.01,575,Wunderground v.1.15,2013-08-02 15:35:00,
2013-08-02 09:40:00,66.4,53.0,29.78,West,275,0.0,0.0,62,0.00,,,0.01,587,Wunderground v.1.15,2013-08-02 15:40:00,
2013-08-02 09:45:00,66.9,53.9,29.79,West,275,0.0,0.0,63,0.00,,,0.01,603,Wunderground v.1.15,2013-08-02 15:45:00,
2013-08-02 09:50:00,67.6,53.7,29.79,West,275,0.0,0.0,61,0.00,,,0.01,621,Wunderground v.1.15,2013-08-02 15:50:00,
2013-08-02 09:55:00,68.3,54.8,29.79,West,275,0.0,0.0,62,0.00,,,0.01,552,Wunderground v.1.15,2013-08-02 15:55:00,
2013-08-02 10:00:00,68.8,54.3,29.78,West,275,0.0,0.0,60,0.00,,,0.01,650,Wunderground v.1.15,2013-08-02 16:00:00,
2013-08-02 10:05:00,69.1,53.2,29.78,West,275,0.0,0.0,57,0.00,,,0.01,661,Wunderground v.1.15,2013-08-02 16:05:00,
2013-08-02 10:10:00,69.4,52.0,29.78,West,275,0.0,0.0,54,0.00,,,0.01,675,Wunderground v.1.15,2013-08-02 16:10:00,
2013-08-02 10:15:00,69.8,53.4,29.78,West,275,0.0,0.0,56,0.00,,,0.01,687,Wunderground v.1.15,2013-08-02 16:15:00,
2013-08-02 10:20:00,69.9,50.4,29.78,West,275,0.0,0.0,50,0.00,,,0.01,664,Wunderground v.1.15,2013-08-02 16:20:00,
2013-08-02 10:26:00,70.4,53.0,29.78,West,275,0.0,0.0,54,0.00,,,0.01,710,Wunderground v.1.15,2013-08-02 16:26:00,
2013-08-02 10:31:00,70.9,53.9,29.78,West,275,0.0,0.0,55,0.00,,,0.01,722,Wunderground v.1.15,2013-08-02 16:31:00,
2013-08-02 10:36:00,71.5,52.9,29.78,West,275,0.0,0.0,52,0.00,,,0.01,738,Wunderground v.1.15,2013-08-02 16:36:00,
2013-08-02 10:41:00,71.8,51.0,29.78,West,275,0.0,0.0,48,0.00,,,0.01,745,Wunderground v.1.15,2013-08-02 16:41:00,
2013-08-02 10:46:00,72.1,52.4,29.77,West,275,0.0,0.0,50,0.00,,,0.01,759,Wunderground v.1.15,2013-08-02 16:46:00,
2013-08-02 10:51:00,72.3,52.6,29.77,West,275,0.0,0.0,50,0.00,,,0.01,773,Wunderground v.1.15,2013-08-02 16:51:00,
2013-08-02 10:56:00,72.8,53.1,29.77,West,275,0.0,0.0,50,0.00,,,0.01,784,Wunderground v.1.15,2013-08-02 16:56:00,
2013-08-02 11:03:00,73.2,50.6,29.77,West,275,0.0,0.0,45,0.00,,,0.01,798,Wunderground v.1.15,2013-08-02 17:03:00,
2013-08-02 11:08:00,73.7,52.8,29.77,West,275,0.0,0.0,48,0.00,,,0.01,809,Wunderground v.1.15,2013-08-02 17:08:00,
2013-08-02 11:13:00,74.2,51.5,29.77,West,275,0.0,0.0,45,0.00,,,0.01,821,Wunderground v.1.15,2013-08-02 17:13:00,
2013-08-02 11:18:00,74.7,51.9,29.77,West,275,0.0,0.0,45,0.00,,,0.01,828,Wunderground v.1.15,2013-08-02 17:18:00,
2013-08-02 11:23:00,75.3,52.5,29.77,West,275,0.0,0.0,45,0.00,,,0.01,840,Wunderground v.1.15,2013-08-02 17:23:00,
2013-08-02 11:28:00,75.8,52.3,29.77,West,275,0.0,0.0,44,0.00,,,0.01,844,Wunderground v.1.15,2013-08-02 17:28:00,
2013-08-02 11:33:00,76.3,52.8,29.77,West,275,0.0,0.0,44,0.00,,,0.01,831,Wunderground v.1.15,2013-08-02 17:33:00,
2013-08-02 11:38:00,76.7,55.5,29.77,West,275,0.0,0.0,48,0.00,,,0.01,865,Wunderground v.1.15,2013-08-02 17:38:00,
2013-08-02 11:43:00,77.0,54.0,29.77,West,275,0.0,3.0,45,0.00,,,0.01,870,Wunderground v.1.15,2013-08-02 17:43:00,
2013-08-02 11:48:00,77.2,50.3,29.76,West,275,0.0,3.0,39,0.00,,,0.01,881,Wunderground v.1.15,2013-08-02 17:48:00,
2013-08-02 11:53:00,77.2,51.7,29.76,West,275,0.0,1.0,41,0.00,,,0.01,882,Wunderground v.1.15,2013-08-02 17:53:00,
2013-08-02 11:58:00,77.2,53.0,29.76,West,275,0.0,1.0,43,0.00,,,0.01,895,Wunderground v.1.15,2013-08-02 17:58:00,
2013-08-02 12:03:00,77.2,51.7,29.75,West,275,0.0,0.0,41,0.00,,,0.01,898,Wunderground v.1.15,2013-08-02 18:03:00,
2013-08-02 12:08:00,77.4,52.5,29.75,West,275,0.0,0.0,42,0.00,,,0.01,907,Wunderground v.1.15,2013-08-02 18:08:00,
2013-08-02 12:14:00,77.6,51.4,29.75,West,275,0.0,0.0,40,0.00,,,0.01,912,Wunderground v.1.15,2013-08-02 18:14:00,
2013-08-02 12:19:00,77.7,52.1,29.75,West,275,0.0,0.0,41,0.00,,,0.01,916,Wunderground v.1.15,2013-08-02 18:19:00,
2013-08-02 12:24:00,77.9,50.9,29.75,West,275,0.0,0.0,39,0.00,,,0.01,921,Wunderground v.1.15,2013-08-02 18:24:00,
2013-08-02 12:28:00,78.1,50.4,29.75,West,275,0.0,0.0,38,0.00,,,0.01,926,Wunderground v.1.15,2013-08-02 18:28:00,
2013-08-02 12:34:00,78.3,50.6,29.75,West,275,0.0,0.0,38,0.00,,,0.01,933,Wunderground v.1.15,2013-08-02 18:34:00,
2013-08-02 12:39:00,78.1,51.8,29.75,West,275,0.0,0.0,40,0.00,,,0.01,944,Wunderground v.1.15,2013-08-02 18:39:00,
2013-08-02 12:44:00,78.3,51.3,29.74,West,275,0.0,0.0,39,0.00,,,0.01,939,Wunderground v.1.15,2013-08-02 18:44:00,
2013-08-02 12:48:00,78.5,50.8,29.74,West,275,0.0,0.0,38,0.00,,,0.01,951,Wunderground v.1.15,2013-08-02 18:48:00,
2013-08-02 12:53:00,78.6,51.6,29.74,West,275,0.0,0.0,39,0.00,,,0.01,963,Wunderground v.1.15,2013-08-02 18:53:00,
2013-08-02 12:59:00,78.8,51.7,29.73,West,275,0.0,0.0,39,0.00,,,0.01,1002,Wunderground v.1.15,2013-08-02 18:59:00,
2013-08-02 13:04:00,78.8,50.3,29.73,West,275,0.0,0.0,37,0.00,,,0.01,960,Wunderground v.1.15,2013-08-02 19:04:00,
2013-08-02 13:09:00,79.2,51.4,29.73,West,275,0.0,0.0,38,0.00,,,0.01,993,Wunderground v.1.15,2013-08-02 19:09:00,
2013-08-02 13:14:00,79.2,50.7,29.73,West,275,0.0,0.0,37,0.00,,,0.01,1041,Wunderground v.1.15,2013-08-02 19:14:00,
2013-08-02 13:19:00,79.2,49.9,29.73,West,275,0.0,0.0,36,0.00,,,0.01,747,Wunderground v.1.15,2013-08-02 19:19:00,
2013-08-02 13:24:00,79.2,50.7,29.73,West,275,0.0,0.0,37,0.00,,,0.01,833,Wunderground v.1.15,2013-08-02 19:24:00,
2013-08-02 13:29:00,78.8,51.0,29.73,West,275,0.0,0.0,38,0.00,,,0.01,954,Wunderground v.1.15,2013-08-02 19:29:00,
2013-08-02 13:34:00,79.0,51.2,29.73,West,275,0.0,0.0,38,0.00,,,0.01,986,Wunderground v.1.15,2013-08-02 19:34:00,
2013-08-02 13:39:00,79.0,50.5,29.73,West,275,0.0,0.0,37,0.00,,,0.01,965,Wunderground v.1.15,2013-08-02 19:39:00,
2013-08-02 13:44:00,79.2,51.4,29.72,West,275,0.0,0.0,38,0.00,,,0.01,963,Wunderground v.1.15,2013-08-02 19:44:00,
2013-08-02 13:49:00,79.2,53.5,29.72,West,275,0.0,0.0,41,0.00,,,0.01,984,Wunderground v.1.15,2013-08-02 19:49:00,
2013-08-02 13:54:00,79.6,51.8,29.72,West,275,0.0,0.0,38,0.00,,,0.01,914,Wunderground v.1.15,2013-08-02 19:54:00,
2013-08-02 13:59:00,79.6,50.3,29.71,West,275,0.0,0.0,36,0.00,,,0.01,510,Wunderground v.1.15,2013-08-02 19:59:00,
2013-08-02 14:05:00,79.8,51.9,29.71,West,275,0.0,0.0,38,0.00,,,0.01,888,Wunderground v.1.15,2013-08-02 20:05:00,
2013-08-02 14:10:00,79.9,52.0,29.71,West,275,0.0,0.0,38,0.00,,,0.01,965,Wunderground v.1.15,2013-08-02 20:10:00,
2013-08-02 14:15:00,80.1,51.5,29.71,West,275,0.0,0.0,37,0.00,,,0.01,635,Wunderground v.1.15,2013-08-02 20:15:00,
2013-08-02 14:20:00,80.3,52.4,29.71,West,275,0.0,0.0,38,0.00,,,0.01,617,Wunderground v.1.15,2013-08-02 20:20:00,
2013-08-02 14:25:00,80.3,50.9,29.71,West,275,0.0,0.0,36,0.00,,,0.01,905,Wunderground v.1.15,2013-08-02 20:25:00,
2013-08-02 14:31:00,80.1,50.0,29.70,West,275,0.0,0.0,35,0.00,,,0.01,1025,Wunderground v.1.15,2013-08-02 20:31:00,
2013-08-02 14:36:00,80.3,50.1,29.70,West,275,0.0,4.0,35,0.00,,,0.01,1005,Wunderground v.1.15,2013-08-02 20:36:00,
2013-08-02 14:41:00,80.3,50.1,29.70,West,275,0.0,1.0,35,0.00,,,0.01,904,Wunderground v.1.15,2013-08-02 20:41:00,
2013-08-02 14:46:00,80.7,52.0,29.70,West,275,3.0,5.0,37,0.00,,,0.01,1049,Wunderground v.1.15,2013-08-02 20:46:00,
2013-08-02 14:52:00,81.1,51.6,29.70,West,275,1.0,7.0,36,0.00,,,0.01,958,Wunderground v.1.15,2013-08-02 20:52:00,
2013-08-02 14:56:00,81.6,50.5,29.70,West,275,0.0,7.0,34,0.00,,,0.01,1058,Wunderground v.1.15,2013-08-02 20:56:00,
2013-08-02 15:02:00,82.0,49.2,29.69,West,275,0.0,2.0,32,0.00,,,0.01,415,Wunderground v.1.15,2013-08-02 21:02:00,
2013-08-02 15:07:00,82.2,51.0,29.69,West,275,1.0,5.0,34,0.00,,,0.01,536,Wunderground v.1.15,2013-08-02 21:07:00,
2013-08-02 15:12:00,82.2,51.0,29.69,West,275,0.0,0.0,34,0.00,,,0.01,529,Wunderground v.1.15,2013-08-02 21:12:00,
2013-08-02 15:17:00,82.0,50.1,29.68,West,275,0.0,4.0,33,0.00,,,0.01,759,Wunderground v.1.15,2013-08-02 21:17:00,
2013-08-02 15:22:00,81.8,50.7,29.68,West,275,0.0,0.0,34,0.00,,,0.01,563,Wunderground v.1.15,2013-08-02 21:22:00,
2013-08-02 15:27:00,81.6,48.0,29.68,West,275,0.0,0.0,31,0.00,,,0.01,768,Wunderground v.1.15,2013-08-02 21:27:00,
2013-08-02 15:33:00,81.6,47.2,29.67,West,275,0.0,0.0,30,0.00,,,0.01,265,Wunderground v.1.15,2013-08-02 21:33:00,
2013-08-02 15:38:00,81.2,50.2,29.67,West,275,0.0,0.0,34,0.00,,,0.01,209,Wunderground v.1.15,2013-08-02 21:38:00,
2013-08-02 15:43:00,80.9,50.7,29.67,West,275,0.0,0.0,35,0.00,,,0.01,207,Wunderground v.1.15,2013-08-02 21:43:00,
2013-08-02 15:48:00,80.7,46.4,29.68,West,275,0.0,0.0,30,0.00,,,0.01,192,Wunderground v.1.15,2013-08-02 21:48:00,
2013-08-02 15:53:00,80.5,50.3,29.68,West,275,0.0,0.0,35,0.00,,,0.01,174,Wunderground v.1.15,2013-08-02 21:53:00,
2013-08-02 15:58:00,80.1,50.7,29.68,West,275,0.0,0.0,36,0.00,,,0.01,153,Wunderground v.1.15,2013-08-02 21:58:00,
2013-08-02 16:04:00,79.6,48.8,29.68,West,275,0.0,0.0,34,0.00,,,0.01,132,Wunderground v.1.15,2013-08-02 22:04:00,
2013-08-02 16:09:00,79.0,49.0,29.68,West,275,0.0,0.0,35,0.00,,,0.01,127,Wunderground v.1.15,2013-08-02 22:09:00,
2013-08-02 16:14:00,78.6,51.6,29.68,West,275,0.0,0.0,39,0.00,,,0.01,127,Wunderground v.1.15,2013-08-02 22:14:00,
2013-08-02 16:19:00,78.1,50.4,29.68,West,275,0.0,0.0,38,0.00,,,0.01,109,Wunderground v.1.15,2013-08-02 22:19:00,
2013-08-02 16:24:00,77.7,54.0,29.68,WSW,247,9.0,9.0,44,0.00,,,0.01,97,Wunderground v.1.15,2013-08-02 22:24:00,
2013-08-02 16:29:00,76.7,53.8,29.68,SW,221,13.0,19.0,45,0.00,,,0.01,95,Wunderground v.1.15,2013-08-02 22:29:00,
2013-08-02 16:34:00,75.4,53.8,29.68,SW,216,9.0,20.0,47,0.00,,,0.01,100,Wunderground v.1.15,2013-08-02 22:34:00,
2013-08-02 16:39:00,74.6,53.6,29.68,SW,217,9.0,20.0,48,0.00,,,0.01,107,Wunderground v.1.15,2013-08-02 22:39:00,
2013-08-02 16:44:00,73.7,53.9,29.67,SSW,213,9.0,19.0,50,0.00,,,0.01,109,Wunderground v.1.15,2013-08-02 22:44:00,
2013-08-02 16:49:00,73.0,53.8,29.67,SW,219,14.0,19.0,51,0.00,,,0.01,104,Wunderground v.1.15,2013-08-02 22:49:00,
2013-08-02 16:54:00,72.5,53.3,29.67,SW,215,12.0,16.0,51,0.00,,,0.01,100,Wunderground v.1.15,2013-08-02 22:54:00,
2013-08-02 16:59:00,72.0,52.3,29.67,SW,216,12.0,16.0,50,0.00,,,0.01,111,Wunderground v.1.15,2013-08-02 22:59:00,
2013-08-02 17:04:00,71.6,52.0,29.67,SW,221,11.0,14.0,50,0.00,,,0.01,123,Wunderground v.1.15,2013-08-02 23:04:00,
2013-08-02 17:09:00,71.3,51.7,29.67,SW,221,8.0,19.0,50,0.00,,,0.01,139,Wunderground v.1.15,2013-08-02 23:09:00,
2013-08-02 17:14:00,71.1,51.0,29.68,SW,236,12.0,16.0,49,0.00,,,0.01,167,Wunderground v.1.15,2013-08-02 23:14:00,
2013-08-02 17:19:00,70.9,51.9,29.68,WSW,250,17.0,20.0,51,0.00,,,0.01,239,Wunderground v.1.15,2013-08-02 23:19:00,
2013-08-02 17:24:00,70.8,51.8,29.68,WSW,250,18.0,21.0,51,0.00,,,0.01,267,Wunderground v.1.15,2013-08-02 23:24:00,
2013-08-02 17:29:00,70.9,50.2,29.68,WSW,241,13.0,24.0,48,0.00,,,0.01,260,Wunderground v.1.15,2013-08-02 23:29:00,
2013-08-02 17:34:00,71.1,49.8,29.68,WSW,238,18.0,25.0,47,0.00,,,0.01,223,Wunderground v.1.15,2013-08-02 23:34:00,
2013-08-02 17:39:00,71.1,49.8,29.68,SW,232,16.0,25.0,47,0.00,,,0.01,171,Wunderground v.1.15,2013-08-02 23:39:00,
2013-08-02 17:44:00,71.1,48.7,29.67,SW,230,17.0,23.0,45,0.00,,,0.01,139,Wunderground v.1.15,2013-08-02 23:44:00,
2013-08-02 17:49:00,71.1,47.5,29.67,SW,225,17.0,24.0,43,0.00,,,0.01,118,Wunderground v.1.15,2013-08-02 23:49:00,
2013-08-02 17:54:00,70.9,46.0,29.67,SW,223,15.0,23.0,41,0.00,,,0.01,118,Wunderground v.1.15,2013-08-02 23:54:00,
2013-08-02 17:59:00,70.9,46.7,29.67,SW,221,11.0,23.0,42,0.00,,,0.01,109,Wunderground v.1.15,2013-08-02 23:59:00,
2013-08-02 18:04:00,70.8,48.4,29.67,SW,217,21.0,22.0,45,0.00,,,0.01,93,Wunderground v.1.15,2013-08-03 00:04:00,
2013-08-02 18:09:00,70.8,48.4,29.67,SW,221,14.0,22.0,45,0.00,,,0.01,93,Wunderground v.1.15,2013-08-03 00:09:00,
2013-08-02 18:14:00,70.6,48.8,29.69,SW,221,16.0,20.0,46,0.00,,,0.01,97,Wunderground v.1.15,2013-08-03 00:14:00,
2013-08-02 18:19:00,70.3,48.5,29.69,SW,226,16.0,21.0,46,0.00,,,0.01,90,Wunderground v.1.15,2013-08-03 00:19:00,
2013-08-02 18:24:00,69.9,47.6,29.69,SW,230,18.0,23.0,45,0.00,,,0.01,90,Wunderground v.1.15,2013-08-03 00:24:00,
2013-08-02 18:29:00,69.8,46.9,29.70,WSW,241,19.0,23.0,44,0.00,,,0.01,91,Wunderground v.1.15,2013-08-03 00:29:00,
2013-08-02 18:34:00,69.4,47.1,29.70,WSW,242,19.0,23.0,45,0.00,,,0.01,93,Wunderground v.1.15,2013-08-03 00:34:00,
2013-08-02 18:39:00,69.3,47.6,29.70,WSW,255,12.0,23.0,46,0.00,,,0.01,91,Wunderground v.1.15,2013-08-03 00:39:00,
2013-08-02 18:44:00,68.9,46.7,29.70,WSW,240,19.0,20.0,45,0.00,,,0.01,84,Wunderground v.1.15,2013-08-03 00:44:00,
2013-08-02 18:49:00,68.9,48.4,29.70,SW,217,15.0,20.0,48,0.00,,,0.01,79,Wunderground v.1.15,2013-08-03 00:49:00,
2013-08-02 18:54:00,68.6,47.6,29.70,SW,231,15.0,19.0,47,0.00,,,0.01,72,Wunderground v.1.15,2013-08-03 00:54:00,
2013-08-02 19:00:00,68.4,47.9,29.70,SW,232,19.0,19.0,48,0.00,,,0.01,65,Wunderground v.1.15,2013-08-03 01:00:00,
2013-08-02 19:05:00,68.3,46.7,29.70,SW,233,15.0,24.0,46,0.00,,,0.01,58,Wunderground v.1.15,2013-08-03 01:05:00,
2013-08-02 19:10:00,67.9,46.9,29.70,SW,235,22.0,22.0,47,0.00,,,0.01,46,Wunderground v.1.15,2013-08-03 01:10:00,
2013-08-02 19:15:00,67.8,46.3,29.71,WSW,243,24.0,29.0,46,0.00,,,0.01,37,Wunderground v.1.15,2013-08-03 01:15:00,
2013-08-02 19:20:00,67.4,45.3,29.71,SW,235,17.0,20.0,45,0.00,,,0.01,30,Wunderground v.1.15,2013-08-03 01:20:00,
2013-08-02 19:25:00,67.3,45.2,29.71,SW,235,17.0,27.0,45,0.00,,,0.01,28,Wunderground v.1.15,2013-08-03 01:25:00,
2013-08-02 19:30:00,66.9,45.4,29.70,SW,227,23.0,25.0,46,0.00,,,0.01,26,Wunderground v.1.15,2013-08-03 01:30:00,
2013-08-02 19:36:00,66.4,46.1,29.70,WSW,246,23.0,29.0,48,0.00,,,0.01,23,Wunderground v.1.15,2013-08-03 01:36:00,
2013-08-02 19:41:00,66.1,45.3,29.70,WSW,240,23.0,25.0,47,0.00,,,0.01,19,Wunderground v.1.15,2013-08-03 01:41:00,
2013-08-02 19:46:00,65.8,46.1,29.69,SW,234,18.0,26.0,49,0.00,,,0.01,14,Wunderground v.1.15,2013-08-03 01:46:00,
2013-08-02 19:52:00,65.6,45.9,29.69,SW,229,18.0,23.0,49,0.00,,,0.01,9,Wunderground v.1.15,2013-08-03 01:52:00,
2013-08-02 19:57:00,65.3,45.6,29.69,SW,234,18.0,26.0,49,0.00,,,0.01,0,Wunderground v.1.15,2013-08-03 01:57:00,
2013-08-02 20:02:00,65.2,45.5,29.69,SW,230,20.0,27.0,49,0.00,,,0.01,0,Wunderground v.1.15,2013-08-03 02:02:00,
2013-08-02 20:07:00,65.0,45.4,29.69,WSW,240,15.0,27.0,49,0.00,,,0.01,0,Wunderground v.1.15,2013-08-03 02:07:00,
2013-08-02 20:13:00,64.8,45.2,29.69,SW,236,16.0,21.0,49,0.00,,,0.01,0,Wunderground v.1.15,2013-08-03 02:13:00,
2013-08-02 20:18:00,64.8,44.6,29.70,SW,236,16.0,24.0,48,0.00,,,0.01,0,Wunderground v.1.15,2013-08-03 02:18:00,
2013-08-02 20:23:00,64.7,44.5,29.70,WSW,240,17.0,24.0,48,0.00,,,0.01,0,Wunderground v.1.15,2013-08-03 02:23:00,
2013-08-02 20:28:00,64.5,44.4,29.70,WSW,248,15.0,24.0,48,0.00,,,0.01,0,Wunderground v.1.15,2013-08-03 02:28:00,
2013-08-02 20:33:00,64.5,44.4,29.70,WSW,254,17.0,20.0,48,0.00,,,0.01,0,Wunderground v.1.15,2013-08-03 02:33:00,
2013-08-02 20:38:00,64.3,44.2,29.70,WSW,241,14.0,21.0,48,0.00,,,0.01,0,Wunderground v.1.15,2013-08-03 02:38:00,
2013-08-02 20:43:00,64.3,44.7,29.70,WSW,253,19.0,24.0,49,0.00,,,0.01,0,Wunderground v.1.15,2013-08-03 02:43:00,
2013-08-02 20:48:00,64.2,45.7,29.72,WSW,244,16.0,24.0,51,0.00,,,0.01,0,Wunderground v.1.15,2013-08-03 02:48:00,
2013-08-02 20:54:00,64.0,46.5,29.72,WSW,245,22.0,22.0,53,0.00,,,0.01,0,Wunderground v.1.15,2013-08-03 02:54:00,
2013-08-02 20:58:00,63.7,46.7,29.72,WSW,247,17.0,22.0,54,0.00,,,0.01,0,Wunderground v.1.15,2013-08-03 02:58:00,
2013-08-02 21:03:00,63.4,46.9,29.72,WSW,241,15.0,22.0,55,0.00,,,0.01,0,Wunderground v.1.15,2013-08-03 03:03:00,
2013-08-02 21:09:00,63.2,46.8,29.72,WSW,244,17.0,22.0,55,0.00,,,0.01,0,Wunderground v.1.15,2013-08-03 03:09:00,
2013-08-02 21:14:00,62.9,46.5,29.73,WSW,252,14.0,19.0,55,0.00,,,0.01,0,Wunderground v.1.15,2013-08-03 03:14:00,
2013-08-02 21:19:00,62.7,46.3,29.73,WSW,252,15.0,19.0,55,0.00,,,0.01,0,Wunderground v.1.15,2013-08-03 03:19:00,
2013-08-02 21:23:00,62.7,45.8,29.73,WSW,255,16.0,18.0,54,0.00,,,0.01,0,Wunderground v.1.15,2013-08-03 03:23:00,
2013-08-02 21:29:00,62.6,46.2,29.74,WSW,247,14.0,18.0,55,0.00,,,0.01,0,Wunderground v.1.15,2013-08-03 03:29:00,
2013-08-02 21:34:00,62.6,46.2,29.74,WSW,248,15.0,20.0,55,0.00,,,0.01,0,Wunderground v.1.15,2013-08-03 03:34:00,
2013-08-02 21:39:00,62.6,46.2,29.74,WSW,248,12.0,20.0,55,0.00,,,0.01,0,Wunderground v.1.15,2013-08-03 03:39:00,
2013-08-02 21:44:00,62.6,46.2,29.75,WSW,244,16.0,18.0,55,0.00,,,0.01,0,Wunderground v.1.15,2013-08-03 03:44:00,
2013-08-02 21:49:00,62.4,46.0,29.75,WSW,252,15.0,19.0,55,0.00,,,0.01,0,Wunderground v.1.15,2013-08-03 03:49:00,
2013-08-02 21:54:00,62.4,46.5,29.75,WSW,250,17.0,19.0,56,0.00,,,0.01,0,Wunderground v.1.15,2013-08-03 03:54:00,
2013-08-02 21:59:00,62.4,46.0,29.75,WSW,248,14.0,19.0,55,0.00,,,0.01,0,Wunderground v.1.15,2013-08-03 03:59:00,
2013-08-02 22:01:00,62.4,46.0,29.75,WSW,250,12.0,18.0,55,0.00,,,0.01,0,Wunderground v.1.15,2013-08-03 04:01:00,
2013-08-02 22:07:00,62.4,46.0,29.75,WSW,249,14.0,18.0,55,0.00,,,0.01,0,Wunderground v.1.15,2013-08-03 04:07:00,
2013-08-02 22:13:00,62.4,46.0,29.75,WSW,243,16.0,17.0,55,0.00,,,0.01,0,Wunderground v.1.15,2013-08-03 04:13:00,
2013-08-02 22:18:00,62.4,46.0,29.75,WSW,248,11.0,17.0,55,0.00,,,0.01,0,Wunderground v.1.15,2013-08-03 04:18:00,
2013-08-02 22:23:00,62.4,46.0,29.75,WSW,246,13.0,16.0,55,0.00,,,0.01,0,Wunderground v.1.15,2013-08-03 04:23:00,
2013-08-02 22:28:00,62.4,46.0,29.75,WSW,248,16.0,19.0,55,0.00,,,0.01,0,Wunderground v.1.15,2013-08-03 04:28:00,
2013-08-02 22:33:00,62.4,46.0,29.75,WSW,250,9.0,17.0,55,0.00,,,0.01,0,Wunderground v.1.15,2013-08-03 04:33:00,
2013-08-02 22:38:00,62.4,45.5,29.75,WSW,253,11.0,17.0,54,0.00,,,0.01,0,Wunderground v.1.15,2013-08-03 04:38:00,
2013-08-02 22:44:00,62.4,45.5,29.76,WSW,257,12.0,15.0,54,0.00,,,0.01,0,Wunderground v.1.15,2013-08-03 04:44:00,
2013-08-02 22:49:00,62.4,45.5,29.76,West,259,6.0,15.0,54,0.00,,,0.01,0,Wunderground v.1.15,2013-08-03 04:49:00,
2013-08-02 22:54:00,62.4,46.0,29.76,WSW,254,10.0,15.0,55,0.00,,,0.01,0,Wunderground v.1.15,2013-08-03 04:54:00,
2013-08-02 22:59:00,62.4,46.0,29.76,WSW,254,8.0,15.0,55,0.00,,,0.01,0,Wunderground v.1.15,2013-08-03 04:59:00,
2013-08-02 23:04:00,62.4,45.5,29.76,West,264,7.0,10.0,54,0.00,,,0.01,0,Wunderground v.1.15,2013-08-03 05:04:00,
2013-08-02 23:09:00,62.4,46.0,29.76,West,264,4.0,10.0,55,0.00,,,0.01,0,Wunderground v.1.15,2013-08-03 05:09:00,
2013-08-02 23:14:00,62.3,46.4,29.77,West,263,4.0,8.0,56,0.00,,,0.01,0,Wunderground v.1.15,2013-08-03 05:14:00,
2013-08-02 23:19:00,62.3,46.4,29.77,West,263,6.0,8.0,56,0.00,,,0.01,0,Wunderground v.1.15,2013-08-03 05:19:00,
2013-08-02 23:24:00,62.0,46.6,29.77,SW,226,8.0,13.0,57,0.00,,,0.01,0,Wunderground v.1.15,2013-08-03 05:24:00,
2013-08-02 23:29:00,62.0,46.6,29.77,SW,229,11.0,13.0,57,0.00,,,0.01,0,Wunderground v.1.15,2013-08-03 05:29:00,
2013-08-02 23:34:00,61.8,45.5,29.77,SW,236,11.0,12.0,55,0.00,,,0.01,0,Wunderground v.1.15,2013-08-03 05:34:00,
2013-08-02 23:39:00,61.8,45.5,29.77,SW,235,8.0,12.0,55,0.00,,,0.01,0,Wunderground v.1.15,2013-08-03 05:39:00,
2013-08-02 23:44:00,61.6,45.3,29.77,SW,235,7.0,8.0,55,0.00,,,0.01,0,Wunderground v.1.15,2013-08-03 05:44:00,
2013-08-02 23:49:00,61.6,46.2,29.77,SW,235,4.0,8.0,57,0.00,,,0.01,0,Wunderground v.1.15,2013-08-03 05:49:00,
2013-08-02 23:54:00,61.6,46.7,29.77,SW,235,4.0,7.0,58,0.00,,,0.01,0,Wunderground v.1.15,2013-08-03 05:54:00,
2013-08-02 23:59:00,61.6,46.7,29.77,SW,235,0.0,7.0,58,0.00,,,0.01,0,Wunderground v.1.15,2013-08-03 05:59:00,